Akron, CO

12:41 AM MDT on August 30, 2016 (GMT -0600)
Akron-Washington County

Weather History for KAKO - March, 2015

Change the Weather History Date:

Monday, March 16, 2015

  Actual Average Record
Temperature  
Mean Temperature 59 °F 39 °F  
Max Temperature 82 °F 53 °F 82 °F (2015)
Min Temperature 35 °F 26 °F 2 °F (1943)
Degree Days  
Heating Degree Days 6    
Month to date heating degree days 378  
Cooling Degree Days 0    
Month to date cooling degree days 0  
Growing Degree Days 12 (Base 50)    
Moisture  
Dew Point 21 °F    
Average Humidity 48    
Maximum Humidity 85    
Minimum Humidity 10    
Precipitation  
Precipitation 0.00 in 0.03 in 0.21 in (1946)
Month to date precipitation 0.01 0.38  
Year to date precipitation 0.29 1.12  
Sea Level Pressure  
Sea Level Pressure 29.95 in    
Wind  
Wind Speed 16 mph (NNW)    
Max Wind Speed 33 mph    
Max Gust Speed 41 mph    
Visibility 10 miles    
Events      
T = Trace of Precipitation, MM = Missing Value Source: NWS Daily Summary

Daily Weather History Graph

Daily Weather History Graph

Search for Another Location

Airport or City:

Trip Planner

Search our weather history database for the weather conditions in past years. The results will help you decide how hot, cold, wet, or windy it might be!

Date:

Astronomy

Mar. 16, 2015 Rise Set
Actual Time 7:03 AM MDT 7:00 PM MDT
Civil Twilight 6:36 AM MDT 7:27 PM MDT
Nautical Twilight 6:04 AM MDT 7:59 PM MDT
Astronomical Twilight 5:32 AM MDT 8:31 PM MDT
Moon 4:17 AM MDT (3/16) 2:57 PM MDT (3/16)
Length of Visible Light 12h 51m
Length of Day
11h 57m
Waning Crescent, 19% of the Moon is Illuminated
Mar 16
Waning Crescent
Mar 20
New
Mar 27
First Quarter
Apr 4
Full
Apr 11
Last Quarter

Hourly Weather History & Observations

Time (MDT) Temp. Windchill Dew Point Humidity Pressure Visibility Wind Dir Wind Speed Gust Speed Precip Events Conditions
12:53 AM 57.0 °F - 10.0 °F 15% 29.91 in 10.0 mi SSW 13.8 mph - N/A   Clear
1:53 AM 57.0 °F - 9.0 °F 15% 29.88 in 10.0 mi SSW 13.8 mph - N/A   Clear
2:53 AM 54.0 °F - 10.0 °F 17% 29.88 in 10.0 mi SW 13.8 mph - N/A   Clear
3:53 AM 51.1 °F - 10.0 °F 19% 29.86 in 10.0 mi West 11.5 mph - N/A   Clear
4:53 AM 53.1 °F - 9.0 °F 17% 29.84 in 10.0 mi SW 16.1 mph - N/A   Clear
5:53 AM 48.9 °F - 10.0 °F 21% 29.84 in 10.0 mi WSW 12.7 mph - N/A   Clear
6:53 AM 48.9 °F - 9.0 °F 20% 29.88 in 10.0 mi WSW 13.8 mph - N/A   Clear
7:53 AM 50.0 °F - 12.0 °F 22% 29.90 in 10.0 mi West 12.7 mph - N/A   Clear
8:53 AM 55.9 °F - 15.1 °F 20% 29.90 in 10.0 mi West 12.7 mph - N/A   Clear
9:53 AM 63.0 °F - 19.0 °F 18% 29.89 in 10.0 mi WNW 10.4 mph - N/A   Clear
10:53 AM 73.0 °F - 23.0 °F 15% 29.87 in 10.0 mi North 23.0 mph 28.8 mph N/A   Clear
11:53 AM 77.0 °F - 24.1 °F 14% 29.86 in 10.0 mi North 24.2 mph 29.9 mph N/A   Clear
12:53 PM 80.1 °F - 26.1 °F 14% 29.85 in 10.0 mi North 24.2 mph 32.2 mph N/A   Clear
1:53 PM 82.0 °F - 19.9 °F 10% 29.84 in 10.0 mi North 17.3 mph 27.6 mph N/A   Clear
2:53 PM 81.0 °F - 19.9 °F 10% 29.85 in 10.0 mi NNW 24.2 mph 34.5 mph N/A   Clear
3:53 PM 79.0 °F - 23.0 °F 13% 29.88 in 10.0 mi North 24.2 mph 34.5 mph N/A   Clear
4:53 PM 75.9 °F - 27.0 °F 16% 29.90 in 10.0 mi North 26.5 mph 40.3 mph N/A   Clear
5:53 PM 70.0 °F - 34.0 °F 27% 29.97 in 10.0 mi NNE 27.6 mph 35.7 mph N/A   Clear
6:53 PM 62.1 °F - 34.0 °F 35% 30.04 in 10.0 mi NNE 21.9 mph 34.5 mph N/A   Clear
7:53 PM 57.0 °F - 35.1 °F 44% 30.10 in 10.0 mi NE 19.6 mph 28.8 mph N/A   Clear
8:53 PM 50.0 °F - 34.0 °F 54% 30.17 in 10.0 mi NE 21.9 mph 33.4 mph N/A   Clear
9:53 PM 46.0 °F 38.3 °F 33.1 °F 61% 30.20 in 10.0 mi NE 20.7 mph 28.8 mph N/A   Clear
10:53 PM 41.0 °F 32.5 °F 33.1 °F 73% 30.24 in 10.0 mi NNE 17.3 mph 23.0 mph N/A   Clear
11:53 PM 37.9 °F 30.0 °F 33.1 °F 83% 30.26 in 10.0 mi NNE 12.7 mph - N/A   Clear